Fort Myers, FL

1:41 PM EDT on October 18, 2017 (GMT -0400)
Page

Weather History for KFMY - December, 2014

Change the Weather History Date:

Saturday, December 6, 2014

  Actual Average Record
Temperature  
Mean Temperature 76 °F 68 °F  
Max Temperature 84 °F 78 °F 87 °F (1978)
Min Temperature 68 °F 58 °F 41 °F (1987)
Degree Days  
Heating Degree Days 0 2  
Month to date heating degree days 0 7  
Since 1 July heating degree days 41 25  
Cooling Degree Days 11 5  
Month to date cooling degree days 52 30  
Year to date cooling degree days 3979 3893  
Growing Degree Days 26 (Base 50)    
Moisture  
Dew Point 67 °F    
Average Humidity 79    
Maximum Humidity 97    
Minimum Humidity 54    
Precipitation  
Precipitation T in 0.04 in 1.45 in (1979)
Month to date precipitation 0.01 0.27  
Year to date precipitation 42.28 54.49  
Sea Level Pressure  
Sea Level Pressure 30.15 in    
Wind  
Wind Speed 5 mph (NE)    
Max Wind Speed 13 mph    
Max Gust Speed 15 mph    
Visibility 10 miles    
Events      
T = Trace of Precipitation, MM = Missing Value Source: NWS Daily Summary

Daily Weather History Graph

Daily Weather History Graph

Search for Another Location

Airport or City:

Trip Planner

Search our weather history database for the weather conditions in past years. The results will help you decide how hot, cold, wet, or windy it might be!

Date:

Astronomy

Dec. 06, 2014 Rise Set
Actual Time 7:02 AM EST 5:34 PM EST
Civil Twilight 6:37 AM EST 5:59 PM EST
Nautical Twilight 6:08 AM EST 6:28 PM EST
Astronomical Twilight 5:40 AM EST 6:56 PM EST
Moon 6:04 PM EST (12/6) 6:57 AM EST (12/6)
Length of Visible Light 11h 22m
Length of Day
10h 32m
Full, 100% of the Moon is Illuminated
Dec 6
Full
Dec 14
Last Quarter
Dec 21
New
Dec 28
First Quarter
Jan 4
Full

Hourly Weather History & Observations

Time (EST) Temp. Heat Index Dew Point Humidity Pressure Visibility Wind Dir Wind Speed Gust Speed Precip Events Conditions
12:53 AM 69.1 °F - 68.0 °F 96% 30.18 in 10.0 mi East 5.8 mph - N/A   Overcast
1:53 AM 70.0 °F - 68.0 °F 93% 30.17 in 10.0 mi ESE 4.6 mph - N/A   Overcast
2:53 AM 69.1 °F - 66.9 °F 93% 30.16 in 10.0 mi NE 3.5 mph - N/A   Mostly Cloudy
3:53 AM 69.1 °F - 66.9 °F 93% 30.17 in 10.0 mi NE 3.5 mph - N/A   Overcast
4:53 AM 69.1 °F - 68.0 °F 96% 30.17 in 10.0 mi Calm Calm - N/A   Overcast
5:53 AM 69.1 °F - 66.9 °F 93% 30.18 in 10.0 mi Calm Calm - N/A   Overcast
6:53 AM 69.1 °F - 66.9 °F 93% 30.19 in 10.0 mi NE 4.6 mph - N/A   Overcast
7:53 AM 70.0 °F - 68.0 °F 93% 30.19 in 10.0 mi ENE 3.5 mph - N/A   Overcast
8:53 AM 72.0 °F - 68.0 °F 87% 30.21 in 10.0 mi East 5.8 mph - N/A   Overcast
9:53 AM 75.0 °F - 66.9 °F 76% 30.22 in 10.0 mi East 4.6 mph - N/A   Overcast
10:53 AM 77.0 °F - 66.9 °F 71% 30.20 in 10.0 mi ENE 5.8 mph - N/A   Mostly Cloudy
11:53 AM 79.0 °F - 66.0 °F 64% 30.18 in 10.0 mi East 4.6 mph - N/A   Partly Cloudy
12:41 PM 81.0 °F 83.0 °F 66.0 °F 60% 30.14 in 10.0 mi East 5.8 mph - N/A   Scattered Clouds
12:42 PM 81.0 °F 83.0 °F 66.0 °F 60% 30.14 in 10.0 mi East 5.8 mph - N/A   Scattered Clouds
12:53 PM 80.1 °F 81.9 °F 64.9 °F 60% 30.14 in 10.0 mi Calm Calm - N/A   Partly Cloudy
1:53 PM 82.9 °F 84.6 °F 64.9 °F 54% 30.11 in 10.0 mi NE 8.1 mph - N/A   Scattered Clouds
2:53 PM 82.9 °F 84.4 °F 64.0 °F 53% 30.10 in 10.0 mi NNE 6.9 mph - N/A   Partly Cloudy
3:53 PM 81.0 °F 82.5 °F 64.0 °F 56% 30.10 in 10.0 mi East 4.6 mph - N/A   Partly Cloudy
4:53 PM 80.1 °F 81.5 °F 63.0 °F 56% 30.10 in 10.0 mi NE 6.9 mph - N/A   Clear
5:53 PM 75.9 °F - 66.9 °F 74% 30.11 in 10.0 mi NW 9.2 mph - N/A   Overcast
6:53 PM 73.9 °F - 69.1 °F 85% 30.12 in 10.0 mi NNW 5.8 mph - 0.00 in   Overcast
7:53 PM 72.0 °F - 68.0 °F 87% 30.13 in 10.0 mi NNW 5.8 mph - N/A   Scattered Clouds
8:53 PM 72.0 °F - 66.9 °F 84% 30.14 in 10.0 mi North 3.5 mph - N/A   Partly Cloudy
9:53 PM 70.0 °F - 66.9 °F 90% 30.13 in 10.0 mi NNW 3.5 mph - N/A   Clear
10:53 PM 70.0 °F - 66.9 °F 90% 30.12 in 10.0 mi NNW 5.8 mph - N/A   Clear
11:53 PM 69.1 °F - 66.0 °F 90% 30.11 in 10.0 mi NNW 4.6 mph - N/A   Clear